HORIZONS 3E

Last updated on June 26, 2019, 3:46 a.m. UTC

1 43633U 18074B   19176.46961189 -.00000025  00000-0  00000+0 0  9994
2 43633   0.0253 182.3323 0000067  88.9034 340.1472  1.00271979  2793
UTC
Height (km)
Latitude
Longitude
Inclination
Orbital Period
UTC large
Height (km)
Speed (km/s)
/
Latitude / Longitude
Inclination (degrees)
Orbital Period (minutes)
Azimuth
Elevation
Range (km)
Doppler Factor
iOS Compass Heading
iOS Angle

Next 30 passes for location: Hong Kong

Rise time Rise Azimuth (degrees) Set time Set Azimuth (degrees) Duration Max altitude (degrees)

No matching passes for this satellites